STARLINK-36842

Last updated on Tue Mar 24 2026 00:02:05 GMT+0000 (Coordinated Universal Time)

1 67884U 26035F 26082.54187143 .00204460 00000+0 13383-2 0 9995 2 67884 97.2860 15.6158 0002095 90.0825 270.0680 15.75202817 6022
UTC large
Height (km)
Speed (km/s)
/
Latitude / Longitude
Inclination (degrees)
Orbital Period (minutes)
Azimuth
Elevation
Range (km)
Doppler Factor

Next 0 passes for location: London (51.5072 / 0.1276)

Sorry there are no passes over London.